Weather History for Richlands, VA

Change the Weather History Date:

Friday, November 22, 2013

  Actual Average (KBLF) Record (KBLF)
Temperature  
Mean Temperature 56 °F 45 °F  
Max Temperature 60 °F 53 °F 70 °F (1979)
Min Temperature 51 °F 37 °F 8 °F (1964)
Degree Days  
Heating Degree Days 10 20  
Month to date heating degree days 364  
Since 1 July heating degree days 728  
Cooling Degree Days 0 0  
Month to date cooling degree days 0  
Year to date cooling degree days 851  
Growing Degree Days 6 (Base 50)    
Moisture  
Dew Point 52 °F    
Average Humidity 85    
Maximum Humidity 94    
Minimum Humidity 71    
Precipitation  
Precipitation 0.09 in 0.10 in 0.64 in (1982)
Month to date precipitation 1.94  
Year to date precipitation 35.97  
Snow  
Snow 0.00 in - - ()
Month to date snowfall  
Since 1 July snowfall  
Since 1 September snowfall  
Snow Depth -    
Sea Level Pressure  
Sea Level Pressure 30.23 in    
Wind  
Wind Speed 7 mph (WSW)    
Max Wind Speed 12 mph    
Max Gust Speed 21 mph    
Visibility 8 miles    
Events Rain    
T = Trace of Precipitation, MM = Missing Value Source: NWS Daily Summary

Daily Weather History Graph

Daily Weather History Graph

Search for Another Location

Airport:

Trip Planner

Search our weather history database for the weather conditions in past years. The results will help you decide how hot, cold, wet, or windy it might be!

Date:

Astronomy

Nov. 22, 2013 Rise Set
Actual Time 7:13 AM EST 5:13 PM EST
Civil Twilight 6:45 AM EST 5:41 PM EST
Nautical Twilight 6:13 AM EST 6:13 PM EST
Astronomical Twilight 5:42 AM EST 6:44 PM EST
Moon 9:42 PM EST (11/22) 10:57 AM EST (11/22)
Length of Visible Light 10h 56m
Length of Day
9h 59m
Waning Gibbous, 78% of the Moon is Illuminated
Nov 22
Waning Gibbous
Nov 25
Last Quarter
Dec 2
New
Dec 9
First Quarter
Dec 17
Full

Hourly Weather History & Observations

Time (EST) Temp. Dew Point Humidity Pressure Visibility Wind Dir Wind Speed Gust Speed Precip Events Conditions
12:15 AM 58.5 °F 50.4 °F 74% 30.32 in 10.0 mi South 5.8 mph - N/A   Scattered Clouds
12:35 AM 59.2 °F 50.7 °F 74% 30.32 in 10.0 mi South 5.8 mph - N/A   Scattered Clouds
12:55 AM 59.5 °F 50.7 °F 73% 30.31 in 10.0 mi South 5.8 mph - N/A   Mostly Cloudy
1:15 AM 59.9 °F 50.9 °F 72% 30.31 in 10.0 mi SSW 9.2 mph - N/A   Overcast
1:35 AM 59.9 °F 50.9 °F 72% 30.28 in 10.0 mi South 10.4 mph 16.1 mph N/A   Mostly Cloudy
1:55 AM 59.9 °F 50.9 °F 72% 30.28 in 10.0 mi South 8.1 mph 16.1 mph N/A   Mostly Cloudy
2:15 AM 59.9 °F 50.9 °F 72% 30.28 in 10.0 mi South 6.9 mph - N/A   Overcast
2:35 AM 60.1 °F 50.5 °F 71% 30.28 in 10.0 mi South 6.9 mph - N/A   Mostly Cloudy
2:55 AM 59.9 °F 50.5 °F 71% 30.28 in 10.0 mi SSW 5.8 mph - N/A   Overcast
3:15 AM 60.1 °F 50.9 °F 72% 30.28 in 10.0 mi South 5.8 mph - N/A   Overcast
3:35 AM 59.9 °F 50.9 °F 72% 30.27 in 10.0 mi South 5.8 mph - N/A   Overcast
3:55 AM 59.9 °F 50.9 °F 72% 30.28 in 10.0 mi SW 3.5 mph - N/A   Overcast
4:15 AM 59.0 °F 50.7 °F 74% 30.28 in 10.0 mi Calm Calm - N/A   Overcast
4:35 AM 58.1 °F 50.9 °F 77% 30.28 in 5.0 mi West 4.6 mph - N/A   Haze
4:55 AM 58.5 °F 50.9 °F 76% 30.28 in 10.0 mi Calm Calm - N/A   Overcast
5:15 AM 57.0 °F 50.9 °F 80% 30.28 in 7.0 mi West 6.9 mph - N/A   Overcast
5:35 AM 57.9 °F 51.1 °F 78% 30.27 in 10.0 mi SW 9.2 mph - N/A   Overcast
5:55 AM 59.0 °F 51.3 °F 75% 30.27 in 10.0 mi SW 5.8 mph - N/A   Overcast
6:15 AM 56.7 °F 50.9 °F 81% 30.27 in 5.0 mi West 6.9 mph - N/A   Haze
6:35 AM 55.6 °F 51.1 °F 85% 30.27 in 10.0 mi West 8.1 mph - N/A   Overcast
6:55 AM 56.3 °F 51.3 °F 83% 30.28 in 10.0 mi West 10.4 mph - N/A   Overcast
7:15 AM 55.6 °F 51.1 °F 85% 30.27 in 10.0 mi WSW 4.6 mph - N/A   Overcast
7:35 AM 55.4 °F 50.9 °F 85% 30.28 in 3.0 mi WNW 3.5 mph - N/A   Overcast
7:55 AM 55.2 °F 51.1 °F 86% 30.28 in 4.0 mi West 6.9 mph - N/A   Overcast
8:15 AM 55.4 °F 51.4 °F 87% 30.28 in 10.0 mi WSW 6.9 mph - N/A   Overcast
8:35 AM 57.4 °F 51.8 °F 82% 30.28 in 10.0 mi SW 3.5 mph - N/A   Mostly Cloudy
8:55 AM 57.7 °F 51.8 °F 81% 30.28 in 10.0 mi Calm Calm - N/A   Mostly Cloudy
9:15 AM 59.0 °F 52.2 °F 78% 30.28 in 10.0 mi Calm Calm - N/A   Overcast
9:35 AM 59.2 °F 52.2 °F 78% 30.28 in 10.0 mi Calm Calm - N/A   Overcast
9:55 AM 59.0 °F 52.0 °F 78% 30.28 in - West 5.8 mph - N/A   Overcast
10:15 AM 58.8 °F 52.3 °F 79% 30.28 in - WSW 8.1 mph - N/A   Overcast
10:35 AM 59.0 °F 52.3 °F 79% 30.28 in - West 4.6 mph - N/A   Overcast
10:55 AM 59.0 °F 52.5 °F 79% 30.27 in - WSW 3.5 mph - N/A   Overcast
11:15 AM 59.0 °F 52.3 °F 79% 30.27 in - West 8.1 mph - N/A   Overcast
11:35 AM 60.1 °F 53.6 °F 79% 30.26 in - West 5.8 mph - N/A   Overcast
11:55 AM 59.7 °F 53.8 °F 81% 30.26 in - WSW 8.1 mph - N/A   Overcast
12:15 PM 58.6 °F 53.6 °F 83% 30.24 in - SW 10.4 mph 16.1 mph N/A   Overcast
12:35 PM 58.5 °F 53.8 °F 84% 30.23 in - SW 5.8 mph 17.3 mph N/A   Overcast
12:55 PM 58.1 °F 54.0 °F 86% 30.23 in - WSW 8.1 mph - N/A   Unknown
1:15 PM 58.3 °F 54.0 °F 86% 30.22 in - SW 8.1 mph - N/A   Unknown
1:35 PM 58.3 °F 53.8 °F 85% 30.21 in - SW 8.1 mph - N/A   Overcast
1:55 PM 57.4 °F 54.5 °F 90% 30.21 in - SW 9.2 mph - N/A   Overcast
2:15 PM 57.2 °F 54.3 °F 90% 30.20 in - SW 5.8 mph - N/A   Overcast
2:35 PM 57.4 °F 54.5 °F 90% 30.19 in - WSW 8.1 mph - N/A   Overcast
2:55 PM 57.4 °F 54.9 °F 91% 30.19 in - WSW 6.9 mph 18.4 mph N/A   Overcast
3:15 PM 57.2 °F 54.7 °F 91% 30.19 in - WSW 9.2 mph 18.4 mph N/A   Overcast
3:35 PM 57.0 °F 54.7 °F 92% 30.19 in - WSW 10.4 mph 20.7 mph N/A   Overcast
3:55 PM 56.7 °F 54.7 °F 93% 30.19 in - SW 9.2 mph 16.1 mph N/A   Overcast
4:15 PM 56.7 °F 54.9 °F 94% 30.18 in - SSW 8.1 mph - N/A   Overcast
4:35 PM 56.7 °F 54.9 °F 94% 30.17 in - WSW 8.1 mph - N/A   Overcast
4:55 PM 56.7 °F 54.7 °F 93% 30.17 in - WSW 11.5 mph - N/A   Overcast
5:15 PM 56.7 °F 54.7 °F 93% 30.17 in 5.0 mi WSW 5.8 mph - N/A   Heavy Drizzle
5:35 PM 56.7 °F 54.7 °F 93% 30.17 in 7.0 mi WSW 6.9 mph - 0.01 in Rain Rain
5:55 PM 56.5 °F 54.7 °F 94% 30.17 in - WSW 5.8 mph - 0.01 in   Overcast
6:15 PM 56.5 °F 54.7 °F 94% 30.17 in - WSW 8.1 mph - N/A   Overcast
6:35 PM 56.5 °F 54.7 °F 94% 30.17 in - West 9.2 mph - 0.02 in   Overcast
6:55 PM 56.3 °F 54.5 °F 94% 30.17 in - West 10.4 mph - 0.03 in   Overcast
7:15 PM 56.1 °F 54.3 °F 94% 30.18 in - West 10.4 mph - 0.01 in   Overcast
7:35 PM 55.9 °F 54.3 °F 94% 30.18 in - West 8.1 mph - 0.02 in   Overcast
7:55 PM 56.3 °F 54.5 °F 94% 30.18 in - WNW 8.1 mph - 0.02 in   Overcast
8:15 PM 56.3 °F 54.5 °F 94% 30.17 in - WNW 3.5 mph - 0.01 in   Overcast
8:35 PM 55.9 °F 54.3 °F 94% 30.18 in - NW 6.9 mph - 0.01 in   Overcast
8:55 PM 55.8 °F 53.6 °F 92% 30.18 in - NW 6.9 mph - 0.01 in   Unknown
9:15 PM 55.6 °F 53.6 °F 93% 30.18 in - NW 5.8 mph - N/A   Overcast
9:35 PM 55.2 °F 53.2 °F 93% 30.19 in - NNW 11.5 mph - N/A   Overcast
9:55 PM 54.1 °F 52.3 °F 94% 30.18 in - NNW 10.4 mph - 0.01 in   Overcast
10:15 PM 53.6 °F 51.8 °F 94% 30.19 in 7.0 mi NNW 11.5 mph 17.3 mph N/A   Drizzle
10:35 PM 52.7 °F 50.9 °F 94% 30.18 in 1.2 mi NW 5.8 mph - 0.01 in Rain Light Rain
10:55 PM 52.0 °F 50.2 °F 94% 30.19 in 7.0 mi NW 9.2 mph - 0.01 in   Light Drizzle
11:15 PM 51.8 °F 49.6 °F 92% 30.18 in 10.0 mi NW 5.8 mph - N/A   Overcast
11:35 PM 51.4 °F 49.5 °F 93% 30.19 in 10.0 mi NW 5.8 mph - N/A   Overcast
11:55 PM 51.1 °F 49.3 °F 94% 30.19 in 4.0 mi NW 4.6 mph - N/A   Overcast